Lid_Strength_Index
2 4 3 4 9 9 11 10 7 8 8 5 5 6 6 5 7 9 4 2 1 -0 -0 -1 -1 -1 -1 -1 -1 -1 -1 -1 -1 -1 -1 -1 -1 -1 -1 -0 -1 -1 -1 -1 -1 -1 -1 -1 -1
4 5 4 5 11 13 12 8 9 7 6 5 5 5 6 7 5 5 4 2 0 -0 -1 -1 -1 -1 -1 -1 -1 -1 -1 -1 -1 -1 -1 -1 -1 -1 -1 -0 0 -0 -0 -0 -0 -0 -0 -1 -1
5 5 6 9 11 13 11 8 7 6 5 5 6 6 5 6 6 5 3 1 -0 -0 -1 -1 -1 -1 -1 -1 -1 -1 -1 -1 -1 -1 -1 -1 -1 -0 -0 0 -0 -1 -1 -1 -0 -0 -1 -1 -1
6 6 7 11 12 9 9 7 6 6 6 5 5 7 6 6 6 5 2 -0 0 -0 -1 -1 -1 -1 -1 -1 -1 -1 -1 -1 -1 -1 -1 -1 -0 -0 -0 0 0 -0 -0 0 -1 -1 -0 -1 -1
5 7 11 13 12 9 7 6 6 7 6 6 6 6 6 7 6 4 2 0 0 0 0 -1 -1 -1 -1 -1 -1 -1 -0 -0 -0 0 -0 -0 0 0 0 1 1 1 1 -1 -0 -1 -0 -0 -1
8 8 13 15 12 8 7 5 6 6 6 6 7 6 5 7 6 4 2 1 0 0 1 -0 0 -1 -1 -1 -1 -0 -0 0 1 1 1 1 1 1 1 1 1 1 -0 -0 -1 -0 0 -1 -1
8 10 12 12 12 10 8 5 7 6 6 6 5 7 5 7 6 3 2 0 -0 -0 0 0 -0 -0 0 -1 -0 -0 -0 1 1 1 1 2 2 2 2 2 2 0 -1 -1 -1 -1 -0 -1 -1
7 8 11 11 12 11 6 6 5 6 7 5 5 7 6 6 6 4 2 1 0 0 -0 0 -0 -0 -1 -0 1 1 1 1 2 2 3 3 3 3 3 3 2 -0 -0 -1 -1 -1 -1 -1 -1
7 11 13 12 11 9 6 7 5 4 5 7 6 6 7 7 5 4 3 2 2 1 0 -0 -0 -0 -0 -0 2 2 2 2 3 4 5 4 3 3 3 3 2 1 0 0 0 0 1 1 1
10 12 11 7 7 8 7 6 6 6 6 6 6 7 8 7 6 5 4 4 3 2 2 1 0 0 1 1 1 1 2 2 4 6 6 7 6 5 5 5 2 1 1 1 2 2 3 3 1
10 12 8 7 6 6 7 7 5 6 8 6 6 4 7 7 6 5 4 3 3 2 1 1 1 1 1 2 2 2 5 6 6 7 8 7 8 8 7 5 3 2 4 3 3 3 3 3 2
10 8 8 7 6 7 7 6 7 6 6 4 4 3 5 7 6 5 4 4 3 3 2 1 1 1 1 2 3 3 4 7 7 7 8 8 7 7 8 7 6 6 6 6 4 5 4 4 4
11 9 8 8 7 7 6 7 7 6 4 4 5 6 6 6 5 5 4 4 3 3 2 1 1 1 2 3 3 3 4 5 6 7 8 8 7 8 8 8 8 8 7 7 6 7 6 6 6
9 10 10 9 9 8 8 8 7 6 5 5 6 6 5 5 5 4 5 4 4 3 2 1 2 1 2 2 3 4 4 5 7 8 8 8 7 8 9 8 9 9 9 8 7 7 8 8 7
10 12 10 9 10 10 8 10 10 7 6 6 6 6 5 5 4 5 4 4 3 3 2 2 2 2 2 3 3 4 6 8 8 8 8 8 8 8 9 9 9 9 11 9 9 7 9 8 9
12 12 13 10 9 10 10 13 7 6 7 8 7 6 5 5 5 4 4 4 3 3 3 2 3 2 3 3 4 6 7 8 8 9 9 9 9 8 9 9 9 10 10 9 8 8 9 10 9
12 15 14 12 9 10 11 12 8 7 7 7 7 6 6 5 5 4 4 5 4 4 4 3 3 3 3 4 5 6 7 8 8 8 9 9 9 9 9 9 10 11 11 10 9 8 9 12 12
14 15 14 15 12 12 12 12 9 9 10 8 8 7 7 7 6 5 5 5 5 5 4 4 4 4 4 5 6 7 7 7 7 9 10 10 9 9 9 9 10 12 12 11 10 11 10 12 13
12 13 14 13 12 13 13 12 10 8 9 10 9 9 9 8 7 6 6 6 6 5 6 5 5 5 5 7 7 7 8 7 7 8 8 9 9 9 9 9 9 10 11 10 10 11 12 14 14
13 14 14 12 12 13 13 13 11 10 10 10 10 10 9 8 8 7 7 7 6 6 6 6 6 6 6 6 6 7 7 7 7 8 9 9 8 9 9 10 11 11 10 10 11 11 13 14 14
13 14 13 14 12 14 15 16 14 11 11 11 10 10 9 9 9 8 8 8 7 7 6 7 6 6 6 6 6 7 7 7 8 9 9 10 9 9 9 10 11 12 11 11 11 11 11 13 14
16 12 13 14 15 18 14 20 15 13 12 12 12 10 10 10 10 10 10 9 8 7 6 7 7 7 7 7 7 8 8 8 8 8 8 9 10 10 9 10 10 11 11 11 10 10 11 11 13
15 12 13 14 15 16 17 19 16 13 14 13 11 11 10 10 11 12 12 12 11 9 8 7 7 7 7 7 7 7 7 7 7 7 9 10 10 10 10 9 9 10 10 9 10 10 10 11 10
12 14 14 15 15 20 17 17 16 15 13 12 11 11 11 13 13 12 11 11 10 10 9 8 8 8 8 8 8 8 7 7 8 8 9 9 9 9 9 8 9 9 9 9 9 10 10 10 10
14 16 20 21 21 21 16 17 15 13 13 13 12 12 13 13 12 12 12 11 11 11 10 9 9 9 9 8 8 8 7 8 8 9 9 9 9 9 9 8 8 8 9 9 8 9 9 10 10
15 15 19 22 22 19 17 19 16 12 12 12 13 14 14 14 13 13 12 12 11 11 10 10 9 9 9 9 8 8 8 8 8 8 8 9 9 9 8 8 8 9 10 10 9 9 9 9 9
15 17 13 17 17 18 17 16 13 12 13 15 14 14 15 15 15 15 14 13 12 11 11 10 10 10 10 9 9 9 9 9 9 9 9 9 9 10 9 9 8 9 10 10 10 9 10 10 10
14 12 17 16 21 21 18 17 16 13 14 15 16 14 15 15 15 15 15 15 14 12 11 11 11 10 10 10 10 10 10 9 9 10 10 10 10 10 10 9 8 9 10 11 10 10 10 10 10
15 15 15 14 15 19 20 17 13 14 13 13 14 14 15 15 15 15 15 15 14 13 12 12 12 11 11 11 10 10 10 10 10 10 10 10 10 10 10 9 9 9 10 11 11 10 10 11 11
14 14 14 17 18 16 16 16 14 15 15 13 14 14 14 14 15 15 15 15 14 14 13 12 12 12 11 11 11 11 11 11 11 11 10 10 11 10 10 10 10 9 9 11 11 11 11 12 13